This is the latest recevied weather packets stored in our database for station/object VE7PRT-1. If no packets are shown the sender has not sent any weather packets the latest 10 day(s).
| Time | Temp. | Humidity | Pressure | Rain* | Wind** | Luminosity | Snow |
|---|---|---|---|---|---|---|---|
| 1778038210 | 12.78° C | 93% | 1016.8 hPa | 0 mm | - | - | - |
| 1778037339 | 12.78° C | 93% | 1016.8 hPa | 0 mm | - | - | - |
| 1778036567 | 12.78° C | 93% | 1016.7 hPa | 0 mm | - | - | - |
| 1778035839 | 12.78° C | 93% | 1016.7 hPa | 0 mm | - | - | - |
| 1778035032 | 12.78° C | 92% | 1016.7 hPa | 0 mm | - | - | - |
| 1778034252 | 12.78° C | 92% | 1016.8 hPa | 0 mm | - | - | - |
| 1778033437 | 13.33° C | 92% | 1016.8 hPa | 0 mm | - | - | - |
| 1778032634 | 13.33° C | 92% | 1016.6 hPa | 0 mm | - | - | - |
| 1778026759 | 13.89° C | 89% | 1016.7 hPa | 0 mm | - | - | - |
| 1778024234 | 13.89° C | 89% | 1017.1 hPa | 0 mm | - | - | - |
| 1778020099 | 13.33° C | 92% | 1017.5 hPa | 0 mm | - | - | - |
| 1778019264 | 13.33° C | 92% | 1017.6 hPa | 0 mm | - | - | - |
| 1778016804 | 13.89° C | 92% | 1017.8 hPa | 0 mm | - | - | - |
| 1778015307 | 13.33° C | 90% | 1017.9 hPa | 0 mm | - | - | - |
| 1778012966 | 13.33° C | 92% | 1017.6 hPa | 0 mm | - | - | - |
| 1778011434 | 13.89° C | 91% | 1017.5 hPa | 0 mm | - | - | - |
| 1778009898 | 13.33° C | 92% | 1017.4 hPa | 0 mm | - | - | - |
| 1778009166 | 13.33° C | 92% | 1017.2 hPa | 0 mm | - | - | - |
| 1778008407 | 13.33° C | 93% | 1017.2 hPa | 0 mm | - | - | - |
| 1778007534 | 12.78° C | 93% | 1017.1 hPa | 0 mm | - | - | - |
| 1778004999 | 12.78° C | 94% | 1016.8 hPa | 0 mm | - | - | - |
| 1778004306 | 12.78° C | 94% | 1016.7 hPa | 0 mm | - | - | - |
| 1778002724 | 12.22° C | 95% | 1016.6 hPa | 0 mm | - | - | - |
| 1778001827 | 12.22° C | 95% | 1016.5 hPa | 0 mm | - | - | - |
| 1778001032 | 11.67° C | 95% | 1016.4 hPa | 0 mm | - | - | - |
* Rain latest hour (hover to see other rain measurements)
** Current wind speed in m/s (hover to see current wind gust speed)